Location: Hylvaty SDH
(49.9612°N, 16.4057°E)
Time: 11:21:50
(UTC+01:00)

Tiros 1 - Pass Details

Date: 06 October 2020
Orbit: 630 x 663 km, 48.4° (Epoch: 28 October)

Event Time Altitude Azimuth Distance (km) Brightness Sun altitude
Rises 13:37:27 0° 239° (WSW) 2,929 11.1 33.4°
Reaches altitude 10° 13:39:48 10° 234° (SW) 2,027 10.6 33.3°
Maximum altitude 13:44:19 50° 159° (SSE) 824 8.9 33.0°
Drops below altitude 10° 13:48:53 10° 85° (E) 2,054 9.6 32.8°
Sets 13:51:17 0° 80° (E) 2,972 10.3 32.7°
